Sioux Falls, SD

3:37 AM CST on January 22, 2017 (GMT -0600)
Foss

Weather History for KFSD - February, 2012

Change the Weather History Date:

Tuesday, February 21, 2012

  Actual Average Record
Temperature  
Mean Temperature 33 °F 23 °F  
Max Temperature 37 °F 33 °F 64 °F (1977)
Min Temperature 28 °F 14 °F -19 °F (1918)
Degree Days  
Heating Degree Days 32 42  
Month to date heating degree days 795 939  
Since 1 July heating degree days 4686 5571  
Cooling Degree Days 0 0  
Month to date cooling degree days 0 0  
Year to date cooling degree days 0 0  
Moisture  
Dew Point 26 °F    
Average Humidity 78    
Maximum Humidity 93    
Minimum Humidity 59    
Precipitation  
Precipitation 0.00 in 0.03 in 0.95 in (1913)
Month to date precipitation 0.50 0.41  
Year to date precipitation 1.25 0.97  
Snow  
Snow 0.00 in 0.30 in 5.00 in (1920)
Month to date snowfall 0.8 5.1  
Since 1 July snowfall 9.5 29.7  
Snow Depth 0.00 in    
Sea Level Pressure  
Sea Level Pressure 29.70 in    
Wind  
Wind Speed 11 mph (West)    
Max Wind Speed 22 mph    
Max Gust Speed 33 mph    
Visibility 10 miles    
Events      
T = Trace of Precipitation, MM = Missing Value Source: NWS Daily Summary

Daily Weather History Graph

Daily Weather History Graph

Search for Another Location

Airport or City:

Trip Planner

Search our weather history database for the weather conditions in past years. The results will help you decide how hot, cold, wet, or windy it might be!

Date:

Astronomy

Feb. 21, 2012 Rise Set
Actual Time 7:17 AM CST 6:04 PM CST
Civil Twilight 6:48 AM CST 6:33 PM CST
Nautical Twilight 6:14 AM CST 7:07 PM CST
Astronomical Twilight 5:41 AM CST 7:40 PM CST
Moon 6:45 AM CST (2/21) 6:14 PM CST (2/21)
Length of Visible Light 11h 45m
Length of Day
10h 47m
Waning Crescent, 0% of the Moon is Illuminated
Feb 21
Waning Crescent
Feb 21
New
Feb 29
First Quarter
Mar 8
Full
Mar 14
Last Quarter

Hourly Weather History & Observations

Time (CST) Temp. Windchill Dew Point Humidity Pressure Visibility Wind Dir Wind Speed Gust Speed Precip Events Conditions
12:14 AM 33.8 °F 26.4 °F 30.2 °F 87% 29.63 in 10.0 mi WNW 9.2 mph - N/A   Overcast
12:50 AM 33.8 °F 26.4 °F 30.2 °F 87% 29.63 in 10.0 mi WNW 9.2 mph - N/A   Overcast
12:56 AM 33.1 °F 25.5 °F 30.0 °F 89% 29.68 in 10.0 mi WNW 9.2 mph - N/A   Overcast
1:56 AM 32.0 °F 21.6 °F 30.0 °F 92% 29.69 in 4.0 mi WNW 15.0 mph 24.2 mph N/A   Overcast
2:56 AM 33.1 °F 24.9 °F 30.0 °F 89% 29.68 in 10.0 mi West 10.4 mph - N/A   Overcast
3:56 AM 30.0 °F 21.1 °F 28.0 °F 92% 29.68 in 10.0 mi West 10.4 mph - N/A   Mostly Cloudy
4:02 AM 30.2 °F 21.9 °F 28.4 °F 93% 29.63 in 10.0 mi West 9.2 mph - N/A   Mostly Cloudy
4:56 AM 30.0 °F 19.5 °F 26.1 °F 85% 29.69 in 10.0 mi WNW 13.8 mph 19.6 mph N/A   Clear
5:56 AM 30.9 °F 21.2 °F 27.0 °F 85% 29.70 in 10.0 mi West 12.7 mph - N/A   Mostly Cloudy
6:56 AM 28.9 °F 17.7 °F 24.1 °F 82% 29.71 in 10.0 mi West 15.0 mph - N/A   Partly Cloudy
7:56 AM 28.4 °F 16.6 °F 21.2 °F 74% 29.68 in 10.0 mi WNW 16.1 mph 26.5 mph N/A   Clear
8:56 AM 28.9 °F 17.3 °F 23.0 °F 78% 29.75 in 10.0 mi WNW 16.1 mph 25.3 mph N/A   Clear
9:56 AM 30.9 °F 20.2 °F 24.1 °F 76% 29.77 in 10.0 mi WNW 15.0 mph 28.8 mph N/A   Partly Cloudy
10:44 AM 30.2 °F 20.2 °F 24.8 °F 80% 29.72 in 10.0 mi WNW 12.7 mph - N/A   Mostly Cloudy
10:56 AM 30.9 °F 18.4 °F 25.0 °F 79% 29.77 in 10.0 mi WNW 20.7 mph 28.8 mph N/A   Mostly Cloudy
11:15 AM 32.0 °F 21.6 °F 26.6 °F 80% 29.72 in 10.0 mi WNW 15.0 mph 25.3 mph N/A   Scattered Clouds
11:56 AM 34.0 °F 23.0 °F 26.1 °F 73% 29.77 in 10.0 mi WNW 18.4 mph 23.0 mph N/A   Partly Cloudy
12:56 PM 35.1 °F 24.8 °F 25.0 °F 67% 29.75 in 10.0 mi WNW 17.3 mph 23.0 mph N/A   Partly Cloudy
1:56 PM 36.0 °F 26.3 °F 24.1 °F 62% 29.74 in 10.0 mi WNW 16.1 mph 25.3 mph N/A   Partly Cloudy
2:56 PM 37.0 °F 28.1 °F 24.1 °F 59% 29.73 in 10.0 mi West 15.0 mph 21.9 mph N/A   Partly Cloudy
3:56 PM 37.0 °F 28.5 °F 25.0 °F 62% 29.73 in 10.0 mi West 13.8 mph 21.9 mph N/A   Partly Cloudy
4:56 PM 36.0 °F 28.0 °F 24.1 °F 62% 29.73 in 10.0 mi West 11.5 mph 18.4 mph N/A   Partly Cloudy
5:56 PM 34.0 °F 27.2 °F 25.0 °F 70% 29.72 in 10.0 mi West 8.1 mph - N/A   Partly Cloudy
6:56 PM 32.0 °F 28.7 °F 24.1 °F 73% 29.71 in 10.0 mi SW 3.5 mph - N/A   Scattered Clouds
7:56 PM 30.0 °F - 24.1 °F 79% 29.70 in 10.0 mi Calm Calm - N/A   Scattered Clouds
8:56 PM 30.9 °F 26.2 °F 24.1 °F 76% 29.67 in 10.0 mi SW 4.6 mph - N/A   Mostly Cloudy
9:56 PM 30.0 °F - 24.1 °F 79% 29.65 in 10.0 mi Calm Calm - N/A   Mostly Cloudy
10:56 PM 30.0 °F 25.2 °F 24.1 °F 79% 29.62 in 10.0 mi SSW 4.6 mph - N/A   Scattered Clouds
11:56 PM 32.0 °F 27.5 °F 25.0 °F 75% 29.60 in 10.0 mi SSW 4.6 mph - N/A   Mostly Cloudy